Hourly Data Report for September 01, 2014

All times are specified in Local Standard Time (LST). Add 1 hour to adjust for Daylight Saving Time where and when it is observed.

Metadata including Station Name, Province, Latitude, Longitude, Elevation, Climate ID, WMO ID, TC ID
GRANBY
QUEBEC
Latitude: 45°22'22.000" N Longitude: 72°46'26.000" W Elevation: 86.00 m
Climate ID: 7022802 WMO ID: TC ID: MGB
Hourly Data Report for September 1, 2014
Temp Definition
°C

Dew Point Temp Definition
°C

Rel Hum Definition
%

Wind Dir Definition
10's deg
Wind Spd Definition
km/h

Visibility Definition
km

Stn Press Definition
kPa

Hmdx Definition

Wind Chill Definition

Weather Definition

00:00 20.9 20.1 95 22 5 100.17 29 LegendNANA
01:00 20.3 19.1 93 21 4 100.16 27 LegendNANA
02:00 19.4 18.6 95 19 5 100.18 LegendNANA
03:00 19.2 18.3 95 19 6 100.21 LegendNANA
04:00 19.3 18.6 96 20 4 100.25 LegendNANA
05:00 18.6 18.1 97 21 2 100.29 LegendNANA
06:00 18.9 18.5 98 21 3 100.32 LegendNANA
07:00 20.3 19.8 97 21 3 100.36 28 LegendNANA
08:00 21.2 19.5 90 25 9 100.35 28 LegendNANA
09:00 21.6 19.5 88 24 7 100.33 29 LegendNANA
10:00 22.9 19.0 79 25 8 100.33 30 LegendNANA
11:00 22.9 19.0 79 26 10 100.33 30 LegendNANA
12:00 23.8 19.0 75 25 9 100.31 31 LegendNANA
13:00 24.5 18.8 71 28 10 100.29 31 LegendNANA
14:00 25.5 19.2 69 26 10 100.24 32 LegendNANA
15:00 25.3 19.3 69 26 6 100.19 32 LegendNANA
16:00 25.8 19.8 69 26 6 100.16 33 LegendNANA
17:00 24.9 19.9 74 25 5 100.13 32 LegendNANA
18:00 23.4 19.6 79 36 1 100.12 31 LegendNANA
19:00 20.5 19.3 93 0 1 100.14 28 LegendNANA
20:00 19.2 18.6 96   0 100.14 LegendNANA
21:00 18.7 18.1 97 35 2 100.15 LegendNANA
22:00 18.4 17.8 96 33 1 100.10 LegendNANA
23:00 18.7 18.2 97 0 1 100.06 LegendNANA

Notes on Data Quality.

Legend
  • E = Estimated
  • M = Missing
  • NA = Not Available
  • ‡ = Partner data that is not subject to review by the National Climate Archives